Location: ActonStarParty
(42.4766°N, 71.4538°W)
Time: 08:52:35
(UTC-04:00)

Cosmos 1943 Rocket - Pass Details

Date: 19 April 2018
Orbit: 813 x 843 km, 71.0° (Epoch: 24 May)

Event Time Altitude Azimuth Distance (km) Brightness Sun altitude
Rises 23:25:45 0° 339° (NNW) 3,349 6.4 -33.1°
Reaches altitude 10° 23:28:15 10° 345° (NNW) 2,417 5.4 -33.3°
Enters shadow 23:32:05 39° 14° (NNE) 1,207 3.2 -33.5°
